GW2033 Weather Reports


time (UTC)temp
C
wind
direction
speed
KPH
gust
KPH
rain 1hr
cm
rain 24hr
cm
rain mn
cm
humidity
%
barometer
mb
20260906195627 39 236 3.2 14.5 0.00 0.00 0.00 33 1012.2
20260906195123 40 157 0.0 8.0 0.00 0.00 0.00 33 1012.2
20260906194619 38 320 3.2 9.7 0.00 0.00 0.00 34 1012.4
20260906194114 39 162 9.7 19.3 0.00 0.00 0.00 34 1012.5
20260906193609 40 189 4.8 6.4 0.00 0.00 0.00 34 1012.2
20260906193104 38 208 1.6 9.7 0.00 0.00 0.00 35 1012.5
20260906192600 38 280 8.0 12.9 0.00 0.00 0.00 34 1012.7
20260906192059 39 300 8.0 12.9 0.00 0.00 0.00 34 1012.8
20260906191554 38 340 3.2 9.7 0.00 0.00 0.00 34 1012.9
20260906191053 38 208 3.2 11.3 0.00 0.00 0.00 34 1012.9
20260906190553 38 190 1.6 11.3 0.00 0.00 0.00 34 1012.9
20260906190048 38 244 3.2 11.3 0.00 0.00 0.00 35 1012.9
20260906185546 38 219 4.8 9.7 0.00 0.00 0.00 35 1012.9
20260906185045 38 65 1.6 12.9 0.00 0.00 0.00 35 1013.2
20260906184541 38 217 12.9 12.9 0.00 0.00 0.00 34 1013.2
20260906184036 38 222 8.0 11.3 0.00 0.00 0.00 34 1013.3
20260906183532 38 294 6.4 11.3 0.00 0.00 0.00 36 1013.3
20260906183028 37 18 4.8 8.0 0.00 0.00 0.00 37 1013.6
20260906182523 38 183 3.2 6.4 0.00 0.00 0.00 35 1013.5
20260906182019 38 251 6.4 8.0 0.00 0.00 0.00 36 1013.6
20260906181514 38 148 0.0 8.0 0.00 0.00 0.00 36 1013.7
20260906181010 37 325 4.8 9.7 0.00 0.00 0.00 37 1013.6
20260906180504 37 178 3.2 11.3 0.00 0.00 0.00 36 1013.8
20260906180003 37 161 8.0 12.9 0.00 0.00 0.00 37 1014.3
20260906175457 36 131 3.2 9.7 0.00 0.00 0.00 38 1014.5
20260906174956 37 176 3.2 9.7 0.00 0.00 0.00 37 1014.3
20260906174455 38 284 4.8 11.3 0.00 0.00 0.00 37 1014.5
20260906173950 37 256 1.6 8.0 0.00 0.00 0.00 37 1014.7
20260906173446 37 201 0.0 6.4 0.00 0.00 0.00 38 1014.7
20260906172945 36 230 0.0 4.8 0.00 0.00 0.00 40 1014.8
20260906172442 36 272 1.6 6.4 0.00 0.00 0.00 40 1014.8
20260906171936 36 0 3.2 11.3 0.00 0.00 0.00 39 1015.0
20260906171431 36 168 1.6 9.7 0.00 0.00 0.00 39 1015.1
20260906170927 37 241 3.2 9.7 0.00 0.00 0.00 37 1015.2
20260906170423 37 273 3.2 11.3 0.00 0.00 0.00 38 1014.8
20260906165920 37 228 1.6 6.4 0.00 0.00 0.00 38 1015.2
20260906165419 37 181 4.8 8.0 0.00 0.00 0.00 39 1015.2
20260906164914 36 164 0.0 3.2 0.00 0.00 0.00 40 1015.2
20260906164412 35 253 0.0 8.0 0.00 0.00 0.00 42 1015.2
20260906163909 35 358 3.2 9.7 0.00 0.00 0.00 42 1015.3
20260906163405 36 263 4.8 8.0 0.00 0.00 0.00 41 1015.4
20260906162903 35 299 3.2 8.0 0.00 0.00 0.00 42 1015.3
20260906162401 35 343 1.6 6.4 0.00 0.00 0.00 42 1015.4
20260906161857 36 228 0.0 9.7 0.00 0.00 0.00 41 1015.2
20260906161356 36 268 8.0 9.7 0.00 0.00 0.00 40 1015.2
20260906160855 36 221 4.8 8.0 0.00 0.00 0.00 41 1015.2
20260906160349 36 116 1.6 6.4 0.00 0.00 0.00 40 1015.2
20260906155847 37 175 1.6 6.4 0.00 0.00 0.00 40 1015.3
20260906155341 36 166 4.8 6.4 0.00 0.00 0.00 41 1015.2
20260906154838 35 238 1.6 4.8 0.00 0.00 0.00 43 1015.2
20260906154332 35 286 1.6 3.2 0.00 0.00 0.00 42 1015.2
20260906153831 35 225 3.2 8.0 0.00 0.00 0.00 43 1015.2
20260906153330 35 164 0.0 4.8 0.00 0.00 0.00 44 1015.2
20260906152825 35 284 4.8 6.4 0.00 0.00 0.00 44 1015.2
20260906152320 34 299 8.0 11.3 0.00 0.00 0.00 45 1015.2
20260906151819 33 310 4.8 9.7 0.00 0.00 0.00 46 1015.2
20260906151315 33 239 0.0 8.0 0.00 0.00 0.00 46 1015.1
20260906150811 33 105 0.0 4.8 0.00 0.00 0.00 46 1015.1
20260906150306 33 265 0.0 4.8 0.00 0.00 0.00 46 1014.9
20260906145805 33 341 3.2 4.8 0.00 0.00 0.00 46 1015.0
20260906145306 33 279 4.8 8.0 0.00 0.00 0.00 45 1014.8
20260906144759 33 172 0.0 3.2 0.00 0.00 0.00 47 1015.1
20260906144254 33 174 0.0 3.2 0.00 0.00 0.00 47 1015.2
20260906143753 33 203 3.2 4.8 0.00 0.00 0.00 47 1015.0
20260906143251 33 289 1.6 3.2 0.00 0.00 0.00 48 1015.0
20260906142750 33 229 0.0 3.2 0.00 0.00 0.00 49 1015.0
20260906142245 32 202 0.0 3.2 0.00 0.00 0.00 50 1014.8
20260906141744 31 230 0.0 4.8 0.00 0.00 0.00 52 1014.8
20260906141239 31 205 1.6 4.8 0.00 0.00 0.00 52 1014.7
20260906140738 31 194 4.8 4.8 0.00 0.00 0.00 53 1015.1
20260906140233 30 169 4.8 4.8 0.00 0.00 0.00 55 1014.9
20260906135730 30 174 3.2 4.8 0.00 0.00 0.00 57 1014.9
20260906135226 30 165 1.6 3.2 0.00 0.00 0.00 56 1014.8
20260906134721 29 130 0.0 4.8 0.00 0.00 0.00 59 1014.9
20260906134217 28 165 0.0 3.2 0.00 0.00 0.00 61 1014.9
20260906133713 28 127 0.0 1.6 0.00 0.00 0.00 62 1014.8
20260906133208 27 7 0.0 0.0 0.00 0.00 0.00 63 1014.7
20260906132703 27 326 0.0 1.6 0.00 0.00 0.00 66 1014.7
20260906132158 26 352 0.0 1.6 0.00 0.00 0.00 69 1014.6
20260906131654 26 235 0.0 3.2 0.00 0.00 0.00 70 1014.5
20260906131149 25 225 0.0 1.6 0.00 0.00 0.00 71 1014.5
20260906130644 25 50 0.0 0.0 0.00 0.00 0.00 71 1014.7
20260906130139 25 50 0.0 0.0 0.00 0.00 0.00 72 1014.5
20260906125637 25 357 1.6 3.2 0.00 0.00 0.00 72 1014.3
20260906125136 25 129 0.0 0.0 0.00 0.00 0.00 74 1014.5
20260906124631 25 113 0.0 0.0 0.00 0.00 0.00 74 1014.2
20260906124127 25 116 0.0 1.6 0.00 0.00 0.00 74 1013.9
20260906123626 25 37 0.0 1.6 0.00 0.00 0.00 74 1013.9
20260906123121 24 50 0.0 1.6 0.00 0.00 0.00 75 1013.9
20260906122620 23 100 0.0 3.2 0.00 0.00 0.00 75 1013.6
20260906122116 23 336 0.0 0.0 0.00 0.00 0.00 76 1013.6
20260906121612 23 230 0.0 0.0 0.00 0.00 0.00 76 1013.7
20260906121108 23 230 0.0 0.0 0.00 0.00 0.00 76 1013.7
20260906120603 23 230 0.0 0.0 0.00 0.00 0.00 76 1013.7
20260906120101 23 230 0.0 0.0 0.00 0.00 0.00 76 1013.6
20260906115600 23 230 0.0 0.0 0.00 0.00 0.00 75 1013.4
20260906115056 23 230 0.0 1.6 0.00 0.00 0.00 75 1013.4
20260906114550 23 55 0.0 0.0 0.00 0.00 0.00 75 1013.3
20260906114045 23 142 0.0 0.0 0.00 0.00 0.00 75 1013.3
20260906113544 23 173 0.0 0.0 0.00 0.00 0.00 75 1013.4
20260906113040 23 129 0.0 1.6 0.00 0.00 0.00 74 1013.2
20260906112534 24 184 0.0 1.6 0.00 0.00 0.00 74 1013.2
20260906112031 24 309 0.0 1.6 0.00 0.00 0.00 74 1013.2
20260906111530 24 164 0.0 0.0 0.00 0.00 0.00 74 1013.1
20260906111025 24 142 0.0 1.6 0.00 0.00 0.00 74 1013.0
20260906110520 24 89 0.0 0.0 0.00 0.00 0.00 74 1013.1
20260906110019 24 89 0.0 0.0 0.00 0.00 0.00 73 1013.0
20260906105514 24 129 0.0 1.6 0.00 0.00 0.00 73 1012.9
20260906105010 24 75 0.0 1.6 0.00 0.00 0.00 72 1013.0
20260906104509 24 154 0.0 1.6 0.00 0.00 0.00 72 1013.0
20260906104003 24 96 0.0 1.6 0.00 0.00 0.00 72 1013.1
20260906103501 25 142 0.0 1.6 0.00 0.00 0.00 71 1012.9
20260906102956 25 129 0.0 1.6 0.00 0.00 0.00 71 1012.9
20260906102457 25 103 1.6 3.2 0.00 0.00 0.00 71 1013.1
20260906101951 25 142 0.0 1.6 0.00 0.00 0.00 71 1013.0
20260906101446 25 351 0.0 0.0 0.00 0.00 0.00 71 1013.0
20260906100947 25 37 0.0 1.6 0.00 0.00 0.00 71 1013.0
20260906100442 25 351 0.0 3.2 0.00 0.00 0.00 71 1013.1
20260906095936 25 130 0.0 0.0 0.00 0.00 0.00 71 1013.0
20260906095431 25 130 0.0 0.0 0.00 0.00 0.00 71 1013.1
20260906094926 25 130 0.0 1.6 0.00 0.00 0.00 70 1013.0
20260906094421 25 321 0.0 0.0 0.00 0.00 0.00 70 1013.2
20260906093917 25 164 0.0 1.6 0.00 0.00 0.00 70 1013.0
20260906093413 25 49 0.0 0.0 0.00 0.00 0.00 69 1013.0
20260906092912 25 37 0.0 1.6 0.00 0.00 0.00 69 1013.0
20260906092407 25 44 0.0 1.6 0.00 0.00 0.00 68 1013.1
20260906091902 25 315 0.0 1.6 0.00 0.00 0.00 68 1013.1
20260906091358 25 142 0.0 1.6 0.00 0.00 0.00 69 1012.9
20260906090855 25 172 0.0 1.6 0.00 0.00 0.00 68 1012.9
20260906090354 25 195 0.0 1.6 0.00 0.00 0.00 68 1012.9
20260906085848 25 15 0.0 0.0 0.00 0.00 0.00 68 1012.9
20260906085348 26 15 0.0 0.0 0.00 0.00 0.00 67 1012.9
20260906084842 26 15 0.0 0.0 0.00 0.00 0.00 66 1012.9
20260906084342 26 15 0.0 1.6 0.00 0.00 0.00 66 1012.9
20260906083831 26 129 0.0 0.0 0.00 0.00 0.00 65 1012.9
20260906083326 26 22 0.0 1.6 0.00 0.00 0.00 65 1012.7
20260906082820 26 15 0.0 1.6 0.00 0.00 0.00 64 1012.8
20260906082315 26 165 0.0 0.0 0.00 0.00 0.00 63 1012.8
20260906081811 27 165 0.0 0.0 0.00 0.00 0.00 62 1012.8
20260906081307 27 165 0.0 0.0 0.00 0.00 0.00 61 1012.9
20260906080803 27 174 1.6 3.2 0.00 0.00 0.00 61 1012.8
20260906080259 27 166 1.6 1.6 0.00 0.00 0.00 61 1012.7
20260906075759 27 263 0.0 1.6 0.00 0.00 0.00 62 1012.8
20260906075258 27 217 0.0 1.6 0.00 0.00 0.00 62 1012.9
20260906074754 27 242 0.0 0.0 0.00 0.00 0.00 62 1012.7
20260906074253 27 242 0.0 1.6 0.00 0.00 0.00 61 1012.7
20260906073753 27 282 0.0 3.2 0.00 0.00 0.00 61 1012.5
20260906073248 27 326 0.0 1.6 0.00 0.00 0.00 61 1012.6
20260906072744 27 164 0.0 3.2 0.00 0.00 0.00 60 1012.7
20260906072239 27 154 0.0 1.6 0.00 0.00 0.00 61 1012.6
20260906071735 27 195 0.0 1.6 0.00 0.00 0.00 61 1012.6
20260906071235 27 75 0.0 1.6 0.00 0.00 0.00 61 1012.6
20260906070732 27 224 0.0 0.0 0.00 0.00 0.00 61 1012.7
20260906070227 27 234 3.2 4.8 0.00 0.00 0.00 60 1012.4
20260906065726 27 150 0.0 3.2 0.00 0.00 0.00 59 1012.6
20260906065222 28 226 1.6 3.2 0.00 0.00 0.00 59 1012.6
20260906064717 28 218 0.0 3.2 0.00 0.00 0.00 57 1012.7
20260906064213 28 232 0.0 4.8 0.00 0.00 0.00 57 1012.5
20260906063708 28 248 0.0 6.4 0.00 0.00 0.00 56 1012.5
20260906063203 28 150 1.6 6.4 0.00 0.00 0.00 56 1012.6
20260906062659 28 138 1.6 3.2 0.00 0.00 0.00 57 1012.6
20260906062158 28 179 1.6 6.4 0.00 0.00 0.00 57 1012.5
20260906061654 28 80 0.0 6.4 0.00 0.00 0.00 58 1012.8
20260906061149 28 62 0.0 3.2 0.00 0.00 0.00 58 1012.7
20260906060645 28 327 0.0 6.4 0.00 0.00 0.00 58 1012.7
20260906060142 28 322 0.0 3.2 0.00 0.00 0.00 58 1012.5
20260906055638 28 137 1.6 3.2 0.00 0.00 0.00 57 1012.7
20260906055133 28 209 0.0 11.3 0.00 0.00 0.00 57 1012.7
20260906054628 28 311 1.6 3.2 0.00 0.00 0.00 57 1012.8
20260906054123 28 180 3.2 3.2 0.00 0.00 0.00 57 1012.7
20260906053619 28 162 1.6 3.2 0.00 0.00 0.00 57 1012.9
20260906053114 28 154 0.0 1.6 0.00 0.00 0.00 57 1012.7
20260906052610 28 235 0.0 4.8 0.00 0.00 0.00 57 1012.9
20260906052107 28 22 0.0 3.2 0.00 0.00 0.00 57 1012.8
20260906051602 28 269 0.0 3.2 0.00 0.00 0.00 57 1012.7
20260906051057 28 25 0.0 3.2 0.00 0.00 0.00 57 1012.8
20260906050552 28 129 0.0 0.0 0.00 0.00 0.00 56 1012.6
20260906050048 29 129 0.0 6.4 0.00 0.00 0.00 55 1012.6
20260906045545 29 104 0.0 3.2 0.00 0.00 0.00 55 1012.6
20260906045042 30 131 0.0 3.2 0.00 0.00 0.00 54 1012.7
20260906044537 30 180 0.0 4.8 0.00 0.00 0.00 53 1012.8
20260906044032 30 96 0.0 8.0 0.00 0.00 0.00 53 1012.7
20260906043528 30 234 0.0 4.8 0.00 0.00 0.00 53 1012.7
20260906043024 30 162 0.0 3.2 0.00 0.00 0.00 53 1012.6
20260906042522 30 160 0.0 4.8 0.00 0.00 0.00 53 1012.7
20260906042017 30 218 0.0 4.8 0.00 0.00 0.00 53 1012.6
20260906041514 30 146 3.2 4.8 0.00 0.00 0.00 53 1012.7
20260906041013 30 167 3.2 4.8 0.00 0.00 0.00 52 1012.9
20260906040509 30 136 3.2 4.8 0.00 0.00 0.00 52 1012.7
20260906040004 30 180 1.6 6.4 0.00 0.00 0.00 51 1012.5
20260906035459 31 173 1.6 4.8 0.00 0.00 0.00 51 1012.7
20260906034955 30 170 1.6 8.0 0.00 0.00 0.00 51 1012.5
20260906034454 30 166 1.6 6.4 0.00 0.00 0.00 52 1012.2
20260906033949 30 209 1.6 3.2 0.00 0.00 0.00 52 1012.6
20260906033444 31 176 1.6 8.0 0.00 0.00 0.00 51 1012.4
20260906032940 31 152 3.2 6.4 0.00 0.00 0.00 51 1012.4
20260906032436 31 180 0.0 4.8 0.00 0.00 0.00 51 1012.5
20260906031930 31 141 4.8 8.0 0.00 0.00 0.00 50 1012.4
20260906031426 31 153 3.2 8.0 0.00 0.00 0.00 50 1012.5
20260906030921 31 196 0.0 9.7 0.00 0.00 0.00 50 1012.5
20260906030416 31 191 1.6 8.0 0.00 0.00 0.00 50 1012.5
20260906025910 31 147 0.0 4.8 0.00 0.00 0.00 49 1012.4
20260906025405 31 182 1.6 3.2 0.00 0.00 0.00 49 1012.2
20260906024904 31 178 1.6 6.4 0.00 0.00 0.00 49 1012.3
20260906024403 31 173 0.0 8.0 0.00 0.00 0.00 49 1012.3
20260906023858 31 176 3.2 4.8 0.00 0.00 0.00 49 1012.2
20260906023354 31 170 3.2 4.8 0.00 0.00 0.00 49 1011.9
20260906022848 32 199 0.0 4.8 0.00 0.00 0.00 49 1012.1
20260906022344 32 175 1.6 4.8 0.00 0.00 0.00 48 1012.0
20260906021840 32 146 0.0 3.2 0.00 0.00 0.00 48 1011.8
20260906021338 32 155 3.2 9.7 0.00 0.00 0.00 48 1011.8
20260906020834 32 190 1.6 6.4 0.00 0.00 0.00 48 1011.4
20260906020333 32 168 3.2 4.8 0.00 0.00 0.00 48 1011.4
20260906015828 32 148 1.6 1.6 0.00 0.00 0.00 48 1011.7
20260906015327 32 219 0.0 4.8 0.00 0.00 0.00 47 1011.7
20260906014826 32 164 0.0 3.2 0.00 0.00 0.00 47 1011.6
20260906014322 32 154 0.0 3.2 0.00 0.00 0.00 46 1011.7
20260906013818 33 173 1.6 4.8 0.00 0.00 0.00 46 1011.3
20260906013313 33 159 4.8 6.4 0.00 0.00 0.00 46 1011.2
20260906012809 33 189 4.8 6.4 0.00 0.00 0.00 45 1011.0
20260906012308 33 180 0.0 3.2 0.00 0.00 0.00 45 1011.2
20260906011803 33 172 0.0 3.2 0.00 0.00 0.00 45 1011.2
20260906011258 33 146 0.0 4.8 0.00 0.00 0.00 44 1011.0
20260906010754 33 181 1.6 4.8 0.00 0.00 0.00 44 1011.0
20260906010250 33 183 1.6 3.2 0.00 0.00 0.00 44 1011.1
20260906005744 33 186 0.0 3.2 0.00 0.00 0.00 44 1011.0
20260906005238 33 173 0.0 3.2 0.00 0.00 0.00 43 1010.9
20260906004737 34 182 1.6 8.0 0.00 0.00 0.00 43 1010.8
20260906004233 34 185 6.4 8.0 0.00 0.00 0.00 42 1010.8
20260906003733 34 167 4.8 6.4 0.00 0.00 0.00 42 1010.7
20260906003228 35 178 0.0 6.4 0.00 0.00 0.00 41 1010.7
20260906002723 35 170 3.2 9.7 0.00 0.00 0.00 41 1010.7
20260906002218 35 170 1.6 8.0 0.00 0.00 0.00 40 1010.7
20260906001713 35 149 3.2 9.7 0.00 0.00 0.00 40 1010.8
20260906001213 35 186 0.0 8.0 0.00 0.00 0.00 40 1010.9
20260906000709 35 249 1.6 9.7 0.00 0.00 0.00 39 1010.9
20260906000204 35 160 1.6 8.0 0.00 0.00 0.00 40 1010.9
20260905235703 35 171 3.2 8.0 0.00 0.00 0.00 39 1011.0
20260905235158 36 174 3.2 8.0 0.00 0.00 0.00 38 1010.9
20260905234653 36 171 4.8 4.8 0.00 0.00 0.00 37 1010.9
20260905234149 36 128 1.6 4.8 0.00 0.00 0.00 37 1011.0
20260905233644 36 148 8.0 11.3 0.00 0.00 0.00 37 1011.1
20260905233143 36 212 3.2 8.0 0.00 0.00 0.00 36 1011.1
20260905232638 36 160 3.2 9.7 0.00 0.00 0.00 35 1011.2
20260905232134 36 195 3.2 11.3 0.00 0.00 0.00 35 1010.9
20260905231629 37 257 0.0 3.2 0.00 0.00 0.00 36 1010.9
20260905231125 37 176 1.6 17.7 0.00 0.00 0.00 35 1011.0
20260905230621 37 169 6.4 12.9 0.00 0.00 0.00 36 1011.0
20260905230118 37 145 4.8 12.9 0.00 0.00 0.00 36 1010.9
20260905225612 37 212 3.2 17.7 0.00 0.00 0.00 36 1010.9
20260905225107 37 152 4.8 12.9 0.00 0.00 0.00 36 1010.9
20260905224602 37 150 4.8 11.3 0.00 0.00 0.00 36 1010.8
20260905224101 37 164 8.0 16.1 0.00 0.00 0.00 36 1010.8
20260905223559 37 160 3.2 16.1 0.00 0.00 0.00 36 1011.0
20260905223055 38 201 4.8 14.5 0.00 0.00 0.00 36 1010.8
20260905222554 38 175 6.4 16.1 0.00 0.00 0.00 35 1011.0
20260905222050 37 140 3.2 9.7 0.00 0.00 0.00 36 1010.9
20260905221546 38 215 4.8 17.7 0.00 0.00 0.00 36 1010.8
20260905221042 38 187 3.2 6.4 0.00 0.00 0.00 35 1011.0
20260905220537 38 213 3.2 20.9 0.00 0.00 0.00 35 1010.7
20260905220033 38 223 6.4 14.5 0.00 0.00 0.00 35 1010.9
20260905215532 38 193 3.2 14.5 0.00 0.00 0.00 35 1010.8
20260905215029 38 160 3.2 20.9 0.00 0.00 0.00 35 1010.9
20260905214525 38 210 3.2 16.1 0.00 0.00 0.00 35 1010.9
20260905214020 38 186 3.2 16.1 0.00 0.00 0.00 35 1010.7
20260905213515 38 240 3.2 12.9 0.00 0.00 0.00 35 1010.8
20260905213010 38 180 8.0 19.3 0.00 0.00 0.00 35 1011.1
20260905212505 38 181 4.8 16.1 0.00 0.00 0.00 35 1010.9
20260905212004 39 180 1.6 8.0 0.00 0.00 0.00 33 1010.8
20260905211500 38 170 6.4 17.7 0.00 0.00 0.00 34 1010.9
20260905210955 38 218 17.7 25.7 0.00 0.00 0.00 34 1011.0
20260905210451 39 158 4.8 16.1 0.00 0.00 0.00 34 1011.0
20260905205950 38 178 1.6 8.0 0.00 0.00 0.00 35 1011.4
20260905205445 38 172 4.8 14.5 0.00 0.00 0.00 35 1011.4
20260905204944 38 208 6.4 11.3 0.00 0.00 0.00 35 1011.6
20260905204440 39 223 20.9 27.4 0.00 0.00 0.00 33 1011.3
20260905203938 38 159 6.4 20.9 0.00 0.00 0.00 36 1011.7
20260905203435 38 199 3.2 11.3 0.00 0.00 0.00 36 1011.7
20260905202930 38 188 3.2 17.7 0.00 0.00 0.00 38 1011.7
20260905202425 38 202 8.0 20.9 0.00 0.00 0.00 37 1011.9
20260905201920 38 172 6.4 22.5 0.00 0.00 0.00 37 1012.1
20260905201415 38 149 4.8 20.9 0.00 0.00 0.00 37 1012.0
20260905200910 38 171 3.2 17.7 0.00 0.00 0.00 37 1012.0
20260905200406 38 178 4.8 14.5 0.00 0.00 0.00 37 1012.0
20260905195903 38 205 3.2 19.3 0.00 0.00 0.00 37 1012.2